Погода в Рабате

Мальта     35°52′51″N   14°24′03″E
темп.,
°C
ветер,
м/с
пор.,
м/с
влажн.,
%
обл.,
%
осадки,
мм/ч
давл.,
гПа
погр.,
м
22 января, сб
сб2201:00+13сз11136312 0.4 10221362
04:00+13сз1114615 0.0 10211568
07:00+13сз1111597 0.0 10221327
10:00+13ссз886447 0.1 10231239
13:00+13ссв447052 0.7 1023790
16:00+12в437425 0.5 1023672
19:00+12юв337210 0.5 1024614
22:00+12вюв33701 0.0 1026627
23 января, вс
вс2301:00+12вюв11650 0.0 1026581
04:00+12св22660 0.0 1026726
07:00+12всв33680 0.0 1027689
10:00+12в33680 0.0 1028697
13:00+12в22601 0.0 1028945
16:00+13юв11574 0.0 1026901
19:00+12ююз115916 0.0 1027702
22:00+12з22621 0.0 1027879
24 января, пн
пн2401:00+12зсз34661 0.1 1026864
04:00+12сз44570 0.0 1025772
07:00+12ссз45580 0.0 1025538
10:00+13сз45550 0.0 1026795
13:00+13сз67590 0.0 10241094
16:00+13сз67545 0.0 10241035
19:00+11всв877434 0.1 1026844
22:00+11всв777598 0.4 1027821
25 января, вт
вт2501:00+10всв9868100 0.9 10281216
04:00+9св88568 0.0 10291340
07:00+9св88545 0.0 10301375
10:00+9св765111 0.0 10311691
13:00+9св434818 0.0 10301622
16:00+9с33464 0.0 10301589
19:00+9сз33451 0.0 10311138
22:00+9ссз23464 0.0 10311313
26 января, ср
ср2601:00+9з22485 0.0 10311163
04:00+9зсз44480 0.0 10311013
07:00+9сз55520 0.0 1030885
10:00+10сз55510 0.0 1031868
13:00+11зсз56580 0.0 1030834
16:00+12сз896825 0.0 10281187
19:00+13сз886525 0.0 10281120
22:00+13зсз886485 0.1 10281105